Regional Weather Roundup
Issued by NWS Cleveland, OH

Home | Current Version | Previous Version | Text Only | Print | Product List | Glossary On
Versions: 1 2 3 4 5 6 7 8 9 10 11 12 13 14 15 16 17 18 19 20 21 22 23 24 25 26 27 28 29 30 31 32 33 34 35 36 37 38 39 40 41 42 43 44 45 46 47 48 49 50
000
ASUS41 KCLE 231612
RWRCLE
OHIO REGIONAL WEATHER ROUNDUP
NATIONAL WEATHER SERVICE WILMINGTON, OH
1100 AM EST FRI FEB 23 2018

NOTE: "FAIR" INDICATES FEW OR NO CLOUDS BELOW 12,000 FEET WITH NO
SIGNIFICANT WEATHER AND/OR OBSTRUCTIONS TO VISIBILITY.

OHZ001>008-015>018-024>027-034-035-043-044-231700-
   NORTHWEST OHIO

CITY           SKY/WX    TMP DP  RH WIND       PRES   REMARKS
DEFIANCE       CLOUDY    42  40  92 SW5       30.13S FOG
FINDLAY        CLOUDY    56  52  86 S15G22    30.09F
TOLEDO EXPRESS LGT RAIN  42  42 100 W6        30.12R VSB 1
TOLEDO EXEC    LGT RAIN  45  43  93 SE5       30.09F VSB 1/2
LIMA           LGT RAIN  57  57 100 SW21G30   30.12R
$$

OHZ009>014-019>023-028>033-038-089-231700-
   NORTHEAST OHIO

CITY           SKY/WX    TMP DP  RH WIND       PRES   REMARKS
CLE-HOPKINS    CLOUDY    52  50  93 S10       30.14F
CLE-LAKEFRONT  CLOUDY    51  47  86 S21G31    30.10F
CUY CO. ARPT   CLOUDY    52  50  93 S17       30.15S
LORAIN-ELYRIA  CLOUDY    50  45  83 S10       30.12F
ASHTABULA      CLOUDY    48  46  93 S16       30.16F
AKRON-CANTON   FOG       53  50  89 S13       30.16F VSB 3/4
WOOSTER        CLOUDY    51  50  96 S10       30.16F FOG
MANSFIELD      CLOUDY    55  55 100 S21G31    30.14F FOG
YOUNGSTOWN     LGT RAIN  46  45  96 SE15      30.17F VSB 1
$$

OHZ042-051>053-060>062-070>072-077>081-231700-
  SOUTHWEST OHIO

CITY           SKY/WX    TMP DP  RH WIND       PRES   REMARKS
CINC-COVINGTON CLOUDY    60  59  96 S14G23    30.21F
CINC-LUNKEN    LGT RAIN  61  59  93 SW16G24   30.23S
HAMILTON       LGT RAIN  60  59  96 SW9       30.22R
DAYTON         LGT RAIN  57  57 100 SW18      30.19R FOG
WRIGHT-PAT AFB LGT RAIN  59  57  94 SW17G25   30.18S
DAYTON GENERAL LGT RAIN  59  57  93 SW12      30.19R FOG
WILMINGTON     CLOUDY    60  59  96 SW24G31   30.20F
$$

OHZ036-037-039>041-045>050-054>059-063>069-073>076-082>088-231700-
  CENTRAL AND SOUTHEAST OHIO

CITY           SKY/WX    TMP DP  RH WIND       PRES   REMARKS
COLUMBUS       CLOUDY    56  54  93 S13       30.19F
OSU AIRPORT    CLOUDY    54  54 100 S10       30.18F
BOLTON FIELD   CLOUDY    54  54 100 S13G20    30.19F
RICKENBACK AFB CLOUDY    55  55 100 S17G23    30.20F
NEWARK         CLOUDY    52  51  97 S8        30.19F
MARION         CLOUDY    54  52  93 S21       30.15S FOG
LANCASTER      CLOUDY    58  56  93 SW15      30.21F
ZANESVILLE     CLOUDY    52  49  89 SW8       30.23S
NEW PHILLY     CLOUDY    49  48  97 SE7       30.21S
$$




USA.gov is the U.S. government's official web portal to all federal, state and local government web resources and services.